Tracking 19706 objects as of 17-Jun-2019
HD Live streaming from Space Station
objects crossing your sky now

TITAN 3C TRANSTAGE DEB

Track TITAN 3C TRANSTAGE DEB now!


NORAD ID: 36980
Int'l Code: 1965-108DL
Perigee: 625.5 km
Apogee: 30,145.6 km
Inclination: 27.0 °
Period: 532.3 minutes
Semi major axis: 21756 km
RCS: 0.0286 m2 (small)
Launch date: December 21, 1965
Source: United States (US)
Launch site: AIR FORCE EASTERN TEST RANGE (AFETR)

Note: This is SATELLITE DEBRIS
aabbcc
Your satellite tracking list
Your tracking list is empty




NASA's NSSDC Master Catalog

Two Line Element Set (TLE):
1 36980U 65108DL  18086.01365844 +.00000088 +00000-0 +17169-2 0  9992
2 36980 027.0391 018.3366 6784173 057.4297 005.3035 02.70531394124408
Source of the keplerian elements: AFSPC